Location: Demmingen
(48.6757°N, 10.4375°E)
Time: 01:58:38
(UTC+00:00)

BREEZE-M R/B - Pass Details

Date: 23 May 2024
Orbit: 667 x 26488 km, 48.9° (Epoch: 15 June)

Event Time Altitude Azimuth Distance (km) Brightness Sun altitude
Exits shadow 00:57:43 23° 181° (S) 1,864 4.5 -17.0°
Maximum altitude 01:00:26 38° 128° (SE) 1,825 4.8 -16.8°
Drops below altitude 10° 01:13:06 10° 66° (ENE) 6,732 8.6 -15.8°
Sets 01:23:45 0° 62° (ENE) 10,698 9.9 -15.0°
